This is the latest recevied weather packets stored in our database for station/object N3WMC. If no packets are shown the sender has not sent any weather packets the latest 10 day(s).
| Time | Temp. | Humidity | Pressure | Rain* | Wind** | Luminosity | Snow |
|---|---|---|---|---|---|---|---|
| 1778250428 | 13.89° C | 52% | 1014.1 hPa | 0 mm | - | 498 W/m² | - |
| 1778250125 | 13.33° C | 53% | 1014 hPa | 0 mm | - | 147 W/m² | - |
| 1778249821 | 13.33° C | 54% | 1014.4 hPa | 0 mm | - | 358 W/m² | - |
| 1778249519 | 13.33° C | 55% | 1014.2 hPa | 0 mm | - | 495 W/m² | - |
| 1778249216 | 12.78° C | 56% | 1014.3 hPa | 0 mm | - | 354 W/m² | - |
| 1778248913 | 12.78° C | 56% | 1014.4 hPa | 0 mm | - | 355 W/m² | - |
| 1778248609 | 12.78° C | 59% | 1014.5 hPa | 0 mm | - | 407 W/m² | - |
| 1778248305 | 12.22° C | 57% | 1014.5 hPa | 0 mm | - | 435 W/m² | - |
| 1778248001 | 11.67° C | 59% | 1014.5 hPa | 0 mm | - | 158 W/m² | - |
| 1778247699 | 11.67° C | 59% | 1014.3 hPa | 0 mm | - | 132 W/m² | - |
| 1778247395 | 11.67° C | 60% | 1014.1 hPa | 0 mm | - | 189 W/m² | - |
| 1778247093 | 11.11° C | 61% | 1014.2 hPa | 0 mm | - | 195 W/m² | - |
| 1778246790 | 11.11° C | 62% | 1014.4 hPa | 0 mm | - | 84 W/m² | - |
| 1778246487 | 10.56° C | 63% | 1014.3 hPa | 0 mm | - | 204 W/m² | - |
| 1778246183 | 10° C | 63% | 1014.5 hPa | 0 mm | - | 148 W/m² | - |
| 1778245880 | 10° C | 65% | 1014.5 hPa | 0 mm | - | 178 W/m² | - |
| 1778245576 | 9.44° C | 66% | 1014.6 hPa | 0 mm | - | 73 W/m² | - |
| 1778245274 | 9.44° C | 65% | 1014.6 hPa | 0 mm | - | 122 W/m² | - |
| 1778244974 | 9.44° C | 66% | 1014.8 hPa | 0 mm | - | 121 W/m² | - |
| 1778244672 | 9.44° C | 66% | 1014.8 hPa | 0 mm | - | 78 W/m² | - |
| 1778244370 | 9.44° C | 67% | 1014.8 hPa | 0 mm | - | 77 W/m² | - |
| 1778244067 | 8.89° C | 67% | 1014.6 hPa | 0 mm | - | 73 W/m² | - |
| 1778243765 | 9.44° C | 68% | 1014.9 hPa | 0 mm | - | 53 W/m² | - |
| 1778243462 | 9.44° C | 67% | 1014.8 hPa | 0 mm | - | 61 W/m² | - |
| 1778243158 | 9.44° C | 68% | 1014.6 hPa | 0 mm | - | 53 W/m² | - |
* Rain latest hour (hover to see other rain measurements)
** Current wind speed in m/s (hover to see current wind gust speed)